Weather History for Yakima, WA

Change the Weather History Date:

Sunday, December 8, 2013

  Actual Average Record
Temperature  
Mean Temperature 10 °F 29 °F  
Max Temperature 21 °F 37 °F 53 °F (1991)
Min Temperature -2 °F 22 °F -7 °F (1972)
Degree Days  
Heating Degree Days 55 36  
Month to date heating degree days 329 276  
Since 1 July heating degree days 1745 1809  
Cooling Degree Days 0 0  
Month to date cooling degree days 0 0  
Year to date cooling degree days 970 472  
Moisture  
Dew Point -2 °F    
Average Humidity 63    
Maximum Humidity 83    
Minimum Humidity 43    
Precipitation  
Precipitation 0.00 in 0.05 in 0.41 in (1993)
Month to date precipitation 0.32 0.39  
Year to date precipitation 5.49 7.11  
Snow  
Snow 0.00 in 0.30 in 4.80 in (1948)
Month to date snowfall T 2.3  
Year to date snowfall 1.1 14.5  
Since 1 July snowfall T 5.9  
Snow Depth 0.00 in    
Sea Level Pressure  
Sea Level Pressure 30.54 in    
Wind  
Wind Speed 2 mph (WSW)    
Max Wind Speed 9 mph    
Max Gust Speed 10 mph    
Visibility 10 miles    
Events      
T = Trace of Precipitation, MM = Missing Value Source: NWS Daily Summary

Daily Weather History Graph

Daily Weather History Graph

Search for Another Location

Airport:

Trip Planner

Search our weather history database for the weather conditions in past years. The results will help you decide how hot, cold, wet, or windy it might be!

Date:

Astronomy

Dec. 08, 2013 Rise Set
Actual Time 7:33 AM PST 4:14 PM PST
Civil Twilight 6:58 AM PST 4:49 PM PST
Nautical Twilight 6:20 AM PST 5:27 PM PST
Astronomical Twilight 5:44 AM PST 6:04 PM PST
Moon 11:39 AM PST (12/8) 11:29 PM PST (12/8)
Length of Visible Light 9h 50m
Length of Day
8h 41m
Waxing Crescent, 41% of the Moon is Illuminated
Dec 8
Waxing Crescent
Dec 9
First Quarter
Dec 17
Full
Dec 25
Last Quarter
Jan 1
New

Hourly Weather History & Observations

Time (PST) Temp. Windchill Dew Point Humidity Pressure Visibility Wind Dir Wind Speed Gust Speed Precip Events Conditions
12:53 AM -0.0 °F -7.9 °F -6.0 °F 76% 30.47 in 8.0 mi West 3.5 mph - N/A   Clear
1:53 AM -0.0 °F -9.9 °F -6.0 °F 76% 30.48 in 10.0 mi WNW 4.6 mph - N/A   Clear
2:53 AM -2.0 °F -10.1 °F -7.1 °F 79% 30.48 in 8.0 mi West 3.5 mph - N/A   Clear
3:53 AM -0.0 °F -7.9 °F -7.1 °F 72% 30.48 in 10.0 mi WNW 3.5 mph - N/A   Clear
4:53 AM 1.9 °F - -6.0 °F 69% 30.48 in 10.0 mi Calm Calm - N/A   Clear
5:53 AM 3.0 °F - -4.0 °F 73% 30.49 in 10.0 mi Calm Calm - N/A   Partly Cloudy
6:53 AM 5.0 °F - -2.0 °F 73% 30.51 in 10.0 mi Calm Calm - N/A   Mostly Cloudy
7:53 AM 7.0 °F - -0.9 °F 70% 30.51 in 10.0 mi Calm Calm - N/A   Overcast
8:53 AM 8.1 °F - -0.0 °F 70% 30.52 in 10.0 mi Calm Calm - N/A   Scattered Clouds
9:53 AM 10.9 °F - -0.0 °F 61% 30.53 in 10.0 mi Calm Calm - N/A   Clear
10:53 AM 14.0 °F - 1.0 °F 56% 30.53 in 10.0 mi Calm Calm - N/A   Clear
11:53 AM 18.0 °F 12.7 °F -0.0 °F 45% 30.52 in 10.0 mi ENE 3.5 mph - N/A   Clear
12:53 PM 19.0 °F 13.9 °F 1.9 °F 47% 30.51 in 10.0 mi ESE 3.5 mph - N/A   Clear
1:53 PM 19.9 °F 14.9 °F -0.0 °F 42% 30.53 in 10.0 mi SE 3.5 mph - N/A   Clear
2:53 PM 19.9 °F 14.9 °F -0.0 °F 42% 30.55 in 10.0 mi East 3.5 mph - N/A   Clear
3:53 PM 19.0 °F 13.9 °F -0.0 °F 43% 30.56 in 10.0 mi SE 3.5 mph - N/A   Clear
4:53 PM 12.9 °F - -0.0 °F 56% 30.58 in 10.0 mi Calm Calm - N/A   Clear
5:53 PM 9.0 °F - -0.9 °F 64% 30.59 in 10.0 mi Calm Calm - N/A   Clear
6:53 PM 6.1 °F -0.9 °F -2.0 °F 69% 30.58 in 10.0 mi SW 3.5 mph - N/A   Clear
7:53 PM 7.0 °F - -0.9 °F 70% 30.60 in 10.0 mi Calm Calm - N/A   Clear
8:53 PM 5.0 °F -4.1 °F -0.9 °F 76% 30.62 in 7.0 mi WSW 4.6 mph - N/A   Clear
9:53 PM 7.0 °F -6.6 °F -0.0 °F 73% 30.61 in 9.0 mi West 9.2 mph - N/A   Clear
10:53 PM 7.0 °F - -0.0 °F 73% 30.62 in 8.0 mi Calm Calm - N/A   Clear
11:53 PM 3.9 °F -3.4 °F -2.0 °F 76% 30.61 in 9.0 mi West 3.5 mph - N/A   Clear